Weather History for Mobile, AL

Change the Weather History Date:

Monday, August 26, 2013

  Actual Average Record
Temperature  
Mean Temperature 80 °F 81 °F  
Max Temperature 88 °F 90 °F 100 °F (2000)
Min Temperature 71 °F 72 °F 64 °F (1891)
Cooling Degree Days 15 16  
Month to date cooling degree days 423 439  
Year to date cooling degree days 1755 1850  
Since 1 June cooling degree days 1391 1405  
Growing Degree Days 30 (Base 50)    
Moisture  
Dew Point 65 °F    
Average Humidity 68    
Maximum Humidity 93    
Minimum Humidity 43    
Precipitation  
Precipitation 0.01 in 0.19 in 2.47 in (1950)
Month to date precipitation 9.89 6.06  
Year to date precipitation 51.64 46.26  
Sea Level Pressure  
Sea Level Pressure 30.16 in    
Wind  
Wind Speed 7 mph (ENE)    
Max Wind Speed 15 mph    
Max Gust Speed 20 mph    
Visibility 10 miles    
Events      
T = Trace of Precipitation, MM = Missing Value Source: NWS Daily Summary

Daily Weather History Graph

Daily Weather History Graph

Search for Another Location

Airport:

Trip Planner

Search our weather history database for the weather conditions in past years. The results will help you decide how hot, cold, wet, or windy it might be!

Date:

Astronomy

Aug. 26, 2013 Rise Set
Actual Time 6:26 AM CDT 7:22 PM CDT
Civil Twilight 6:01 AM CDT 7:47 PM CDT
Nautical Twilight 5:32 AM CDT 8:16 PM CDT
Astronomical Twilight 5:01 AM CDT 8:46 PM CDT
Moon 11:01 PM CDT (8/26) 11:59 AM CDT (8/26)
Length of Visible Light 13h 46m
Length of Day
12h 56m
Waning Gibbous, 66% of the Moon is Illuminated
Aug 26
Waning Gibbous
Aug 28
Last Quarter
Sep 5
New
Sep 12
First Quarter
Sep 19
Full

Hourly Weather History & Observations

Time (CDT) Temp. Heat Index Dew Point Humidity Pressure Visibility Wind Dir Wind Speed Gust Speed Precip Events Conditions
12:56 AM 75.9 °F - 71.1 °F 85% 30.19 in 10.0 mi ESE 6.9 mph - 0.00 in   Overcast
1:56 AM 73.9 °F - 71.1 °F 91% 30.17 in 10.0 mi East 4.6 mph - N/A   Overcast
2:56 AM 73.9 °F - 71.1 °F 91% 30.17 in 10.0 mi NE 4.6 mph - N/A   Mostly Cloudy
3:56 AM 73.9 °F - 70.0 °F 87% 30.16 in 10.0 mi NE 6.9 mph - N/A   Overcast
4:56 AM 73.9 °F - 68.0 °F 82% 30.15 in 10.0 mi ENE 5.8 mph - N/A   Mostly Cloudy
5:56 AM 72.0 °F - 66.0 °F 81% 30.18 in 7.0 mi NE 4.6 mph - N/A   Mostly Cloudy
6:56 AM 72.0 °F - 66.0 °F 81% 30.18 in 10.0 mi ENE 3.5 mph - N/A   Mostly Cloudy
7:56 AM 75.0 °F - 66.0 °F 73% 30.19 in 10.0 mi East 5.8 mph - N/A   Scattered Clouds
8:56 AM 79.0 °F - 64.9 °F 62% 30.20 in 10.0 mi East 9.2 mph - N/A   Scattered Clouds
9:56 AM 81.0 °F 82.5 °F 64.0 °F 56% 30.22 in 10.0 mi East 8.1 mph - N/A   Scattered Clouds
10:56 AM 82.9 °F 83.7 °F 62.1 °F 49% 30.22 in 10.0 mi ESE 12.7 mph - N/A   Partly Cloudy
11:56 AM 84.0 °F 84.9 °F 63.0 °F 49% 30.22 in 10.0 mi East 11.5 mph - N/A   Partly Cloudy
12:56 PM 86.0 °F 87.3 °F 64.0 °F 48% 30.20 in 10.0 mi East 5.8 mph - N/A   Scattered Clouds
1:56 PM 87.1 °F 88.3 °F 64.0 °F 46% 30.17 in 10.0 mi NE 8.1 mph - N/A   Partly Cloudy
2:56 PM 88.0 °F 88.4 °F 62.1 °F 42% 30.15 in 10.0 mi ENE 5.8 mph - N/A   Scattered Clouds
3:56 PM 87.1 °F 87.8 °F 63.0 °F 44% 30.14 in 10.0 mi NNE 6.9 mph - N/A   Scattered Clouds
4:56 PM 87.1 °F 87.8 °F 63.0 °F 44% 30.13 in 10.0 mi ENE 6.9 mph - N/A   Scattered Clouds
5:56 PM 86.0 °F 86.3 °F 62.1 °F 44% 30.12 in 10.0 mi NE 5.8 mph - N/A   Partly Cloudy
6:56 PM 82.0 °F 83.8 °F 64.9 °F 56% 30.12 in 10.0 mi NNE 6.9 mph - N/A   Partly Cloudy
7:56 PM 78.1 °F - 64.9 °F 64% 30.12 in 10.0 mi NE 6.9 mph - N/A   Partly Cloudy
8:56 PM 75.9 °F - 64.0 °F 67% 30.12 in 10.0 mi NE 6.9 mph - N/A   Partly Cloudy
9:56 PM 73.9 °F - 63.0 °F 68% 30.13 in 10.0 mi NE 6.9 mph - 0.01 in   Partly Cloudy
10:56 PM 73.0 °F - 64.0 °F 73% 30.14 in 10.0 mi NE 4.6 mph - N/A   Partly Cloudy
11:56 PM 72.0 °F - 64.0 °F 76% 30.14 in 10.0 mi NE 4.6 mph - N/A   Clear